Location: Salillas
(41.9950°N, 0.2228°W)
Time: 01:17:39
(UTC+00:00)

Cosmos 1745 Rocket - Pass Details

Date: 29 March 2020
Orbit: 952 x 999 km, 83.0° (Epoch: 05 June)

Event Time Altitude Azimuth Distance (km) Brightness Sun altitude
Rises 19:05:40 0° 353° (N) 3,717 7.3 -8.5°
Reaches altitude 10° 19:08:13 10° 354° (N) 2,759 6.6 -9.0°
Maximum altitude 19:14:34 83° 83° (E) 993 4.0 -10.1°
Drops below altitude 10° 19:20:47 10° 171° (S) 2,709 6.1 -11.3°
Sets 19:23:16 0° 172° (S) 3,645 6.8 -11.7°
